Volver al catálogo

CZ-6A DEB

ActivoPO
NORAD 61452·DEBRIS·🇨🇳 China

Lanzado Aug 6, 2024 desde Taiyuan Satellite Launch Center

Loading…

Próximos Pases (próximas 24 horas)

TLE

ActualizadoSource: Space-Track

Época: Sep 12, 2026, 22:59 UTC

1 61452U 24140ZJ  26255.95812828  .00003065  00000-0  78297-3 0  9992
2 61452  88.8942 251.3859 0055891 283.2695  76.2282 14.49359403107631

Sigue CZ-6A DEB en tiempo real con AllMySat

Download on the App Store